{"data":{"norad_id":48772,"epoch":"2026-05-24T20:21:43.513920Z","epoch_age_seconds":84053,"freshness":"FRESH","line1":"1 48772U 21045F   26144.84842030  .00000054  00000+0  10881-3 0  9995","line2":"2 48772  87.9000 263.8365 0001865  94.6692 265.4651 13.15546730241352","mean_motion":13.1554673,"eccentricity":0.0001865,"inclination_deg":87.9,"raan_deg":263.8365,"arg_perigee_deg":94.6692,"mean_anomaly_deg":265.4651,"bstar":0.00010881,"rev_number":24135,"period_min":109.46019378574,"perigee_km":1200.3641043328,"apogee_km":1203.1914125377,"semimajor_km":7579.9147584353,"source":"CELESTRAK","updated_at":"2026-05-25T13:38:22.442256Z"}}